Home   Weather   Guelph   Past weeks

Flag for Canada Past Weather in Guelph, Ontario, Canada — Yesterday and Last 2 Weeks

37 °F


Feels Like: 29 °F
Forecast: 37 / 43 °F
Wind: 14 mph from Northwest

Location: Waterloo Well

Current Time: Oct 22, 2016 at 9:35:07 AM

Latest Report: Oct 22, 2016 at 9:00 AM

Visibility: 9 mi

Pressure: 29.85 "Hg

Humidity: 81%

Dew Point: 32 °F

Location of GuelphLocation

Past Weather in Guelph — Graph


Guelph Temperature Yesterday

Maximum temperature yesterday: 50 °F (at 12:00 AM)
Minimum temperature yesterday: 39 °F (at 11:00 PM)
Average temperature yesterday: 47 °F

High & Low Weather Summary for the Past Weeks

High73 °F (Oct 7, 3:00 PM)100% (Oct 9, 8:00 AM)30.50 "Hg (Oct 9, 8:00 AM)
Low28 °F (Oct 10, 7:00 AM)31% (Oct 10, 5:00 PM)29.58 "Hg (Oct 18, 12:00 PM)
Average53 °F81%30.09 "Hg
* Reported Oct 7 8:00 AM — Oct 22 8:00 AM, Guelph, Weather by CustomWeather, © 2016

Note: Actual official high and low records may vary slightly from our data, if they occured in-between our weather recording intervals... More about our weather records


Guelph Weather History for the Previous 24 Hours

Scroll right to see more
Time TempWeatherWind HumidityBarometerVisibility
8:00 AM
Sat, Oct 22
36 °FMore clouds than sun.14 mph87%29.85 "Hg9 mi
7:02 AM36 °FLight rain. Passing clouds.12 mph87%29.87 "Hg9 mi
6:00 AM37 °FMostly cloudy.13 mph87%29.87 "Hg9 mi
5:00 AM37 °FPassing clouds.14 mph81%29.86 "Hg9 mi
4:00 AM37 °FPassing clouds.12 mph87%29.87 "Hg9 mi
3:00 AM37 °FPassing clouds.12 mph87%29.89 "Hg9 mi
2:00 AM37 °FPassing clouds.14 mph87%29.89 "Hg9 mi
1:00 AM37 °FClear.12 mph87%29.90 "Hg9 mi
12:00 AM37 °FClear.9 mph87%29.91 "Hg9 mi
11:00 PM
Fri, Oct 21
39 °FClear.13 mph81%29.92 "Hg9 mi
10:00 PM41 °FPartly cloudy.13 mph81%29.93 "Hg9 mi
9:00 PM41 °FOvercast.13 mph81%29.93 "Hg9 mi
8:00 PM43 °FMostly cloudy.13 mph76%29.94 "Hg9 mi
7:00 PM43 °FPassing clouds.15 mph76%29.94 "Hg9 mi
6:00 PM45 °FMostly cloudy.17 mph76%29.93 "Hg9 mi
5:00 PM46 °FMostly cloudy.18 mph76%29.93 "Hg9 mi
4:00 PM46 °FBroken clouds.16 mph82%29.91 "Hg9 mi
3:00 PM46 °FMostly cloudy.10 mph82%29.90 "Hg9 mi
2:01 PM46 °FLight rain. Overcast.16 mph82%29.92 "Hg9 mi
1:59 PM46 °FOvercast.14 mph82%29.92 "Hg9 mi
1:00 PM46 °FOvercast.13 mph82%29.95 "Hg9 mi
12:00 PM46 °FOvercast.13 mph87%29.92 "Hg9 mi
11:00 AM46 °FLight rain. Mostly cloudy.14 mph87%29.91 "Hg9 mi
10:00 AM46 °FLight rain. Cloudy.10 mph93%29.93 "Hg9 mi
9:00 AM48 °FLight rain. Low clouds.10 mph94%29.92 "Hg9 mi
Weather by CustomWeather, © 2016

See weather overviewHow to use our weather pages